EHI
5 11 18 19 17 16 13 10 6 3 1 0 0 1 3 4 3 1 0 0 0 0 1 2 2 1 1 1 1 0 1 2 3 4 4 3 2 1 1 1 1 0 0
9 13 20 21 18 16 14 10 7 4 2 0 0 1 2 3 2 0 0 0 0 0 1 1 1 0 0 0 0 0 0 1 3 4 4 3 2 2 2 2 2 1 1
17 17 20 23 20 15 13 10 7 5 4 1 0 0 1 1 0 0 0 0 0 0 0 1 1 0 0 0 0 0 0 1 2 3 3 1 1 1 1 1 2 3 2
21 19 21 25 22 14 10 8 6 5 4 2 1 0 0 0 0 0 0 0 0 0 0 1 1 1 1 0 0 0 1 1 2 2 1 0 0 0 0 1 2 3 3
19 19 22 26 23 16 13 11 8 6 5 3 1 0 0 0 0 0 0 0 0 0 0 1 2 2 1 0 1 2 2 2 1 1 0 0 0 0 0 1 2 2 1
16 18 22 28 28 24 20 17 13 10 9 6 3 1 0 0 0 0 0 0 0 0 0 1 2 2 1 0 2 3 3 1 0 0 0 0 0 0 0 0 1 1 0
15 16 22 30 33 31 27 21 17 15 13 9 5 2 1 0 0 0 0 0 0 0 0 1 1 1 1 1 3 4 3 1 0 0 0 0 0 0 0 0 0 0 0
14 15 20 29 34 34 31 23 18 16 14 11 8 5 3 2 1 0 0 0 0 0 0 0 0 1 2 3 4 6 5 2 0 0 0 0 0 1 1 1 0 1 1
13 14 17 23 27 29 28 24 19 15 14 13 11 8 6 5 3 2 1 1 1 0 1 1 1 2 4 6 6 6 5 2 0 0 0 1 2 2 2 1 1 1 2
13 12 14 17 19 19 19 20 19 17 15 14 12 10 8 6 4 4 3 3 3 2 3 4 4 4 6 7 6 4 3 1 0 0 0 2 4 3 3 2 1 1 1
15 12 12 13 13 12 11 12 14 15 14 13 12 9 7 5 4 4 4 4 4 4 5 6 6 5 5 4 3 2 1 0 0 0 1 3 5 5 4 3 2 1 0
18 14 11 11 11 10 8 7 8 8 8 8 8 6 4 3 3 3 3 3 3 3 5 5 4 3 2 1 1 0 0 0 0 1 3 5 6 6 6 4 2 1 1
21 16 12 12 12 11 10 8 6 5 4 3 3 2 1 1 1 1 1 1 1 1 2 2 1 1 0 0 0 0 0 0 0 2 4 6 7 7 6 4 2 1 2
25 22 17 14 14 13 11 9 7 5 4 2 1 1 1 0 0 0 0 0 0 0 1 1 0 0 0 0 0 0 0 0 0 1 3 7 8 8 6 4 2 2 2
33 28 22 17 14 13 12 9 7 4 4 4 2 2 2 1 0 0 0 0 0 0 0 0 0 0 0 0 0 0 0 0 0 0 2 6 9 8 6 4 3 2 2
37 32 25 20 17 16 13 9 6 4 4 5 4 3 4 3 2 1 1 1 1 1 0 0 0 0 0 0 0 0 0 0 0 0 1 3 6 6 6 5 4 3 3
36 33 28 24 21 19 15 10 7 5 5 5 5 5 6 6 5 3 2 2 2 2 1 1 0 0 0 0 0 0 0 0 0 0 0 1 2 3 4 5 5 5 5
35 33 31 29 25 21 17 12 9 7 7 7 6 7 8 7 5 4 3 3 3 3 3 2 1 1 0 0 0 0 0 0 0 0 0 0 0 0 2 4 6 6 7
37 36 33 31 28 24 20 16 12 11 10 10 10 9 9 8 5 3 3 2 3 3 3 3 2 1 0 0 0 0 0 0 0 0 0 0 0 0 1 3 5 6 7
39 38 34 30 26 24 22 20 17 14 13 13 12 11 10 8 5 3 3 3 3 3 3 3 1 1 0 0 0 0 0 0 0 0 0 0 0 0 0 1 3 4 5
39 38 34 28 23 22 21 19 17 15 15 14 13 12 12 9 6 4 4 4 4 4 3 3 1 0 0 0 0 0 0 0 0 0 0 0 0 0 0 0 1 1 2
38 36 32 27 23 22 21 18 15 14 15 14 13 12 13 11 8 5 5 6 7 6 4 3 3 2 1 1 1 0 0 0 0 0 0 0 0 0 0 0 0 0 1
35 32 30 27 24 23 22 18 15 14 15 15 13 13 12 11 9 8 7 8 9 8 6 5 5 5 4 3 2 1 0 0 0 0 0 0 0 0 0 0 0 0 0
30 29 29 27 24 22 21 18 16 15 15 15 15 13 11 9 8 8 8 7 8 9 8 6 6 6 5 5 4 2 0 0 0 0 0 0 0 0 0 0 0 0 0
27 27 27 26 23 21 19 17 16 15 15 15 16 15 11 8 7 7 7 7 7 7 7 7 6 6 5 6 5 3 1 1 0 0 0 0 0 0 0 0 0 0 0
26 27 27 24 22 20 18 16 15 14 15 16 17 16 12 8 6 6 6 6 6 6 6 6 6 6 5 5 5 4 2 2 1 0 0 0 0 0 0 0 0 0 0
Wind_Speed
5 6 11 12 12 12 12 12 11 11 11 11 11 11 10 10 9 9 8 8 8 9 9 9 9 10 10 11 11 11 12 13 14 13 13 13 13 13 13 13 13 10 13
10 8 13 12 12 12 12 12 11 11 11 11 11 10 10 10 9 9 8 7 7 7 8 8 9 9 10 10 10 10 12 12 12 13 13 12 13 12 12 13 12 9 13
12 9 11 13 13 12 12 11 11 11 11 10 10 10 10 9 9 8 7 6 6 7 8 8 8 9 9 9 9 10 11 12 12 12 11 6 8 12 12 13 13 13 13
12 8 10 14 13 13 12 11 11 11 10 10 10 10 9 9 8 8 6 5 6 7 7 8 9 9 9 9 9 9 10 11 11 12 6 5 6 11 12 12 12 13 13
10 8 10 15 14 13 12 11 11 11 10 10 9 9 9 9 8 8 7 7 7 8 7 8 9 9 9 9 9 9 10 10 11 9 6 5 5 10 12 12 12 12 12
9 8 10 14 14 13 12 12 11 11 10 9 9 9 8 8 7 8 8 9 9 8 8 8 8 8 8 8 8 8 9 10 9 6 6 5 4 10 12 11 11 11 11
9 7 9 13 13 13 12 12 11 10 9 9 9 8 8 7 6 7 7 8 8 8 8 8 8 8 8 8 7 8 9 10 6 5 5 4 5 10 11 11 10 10 10
11 9 8 13 14 13 12 11 11 10 9 8 8 8 7 7 6 6 6 7 7 8 8 8 8 7 7 7 7 7 8 8 7 6 4 3 7 10 11 10 10 9 9
10 8 7 7 9 12 12 11 10 9 9 8 8 7 7 6 6 6 6 6 6 7 8 7 7 6 6 6 7 7 8 8 5 3 5 3 7 10 11 10 10 9 9
8 7 6 5 5 5 6 10 10 9 9 8 8 7 7 6 5 5 4 5 6 6 6 6 6 6 6 6 7 7 8 7 4 3 3 4 8 10 10 10 10 9 8
8 6 6 5 4 4 5 8 8 8 7 7 5 6 5 2 2 2 3 4 5 5 5 5 5 5 5 6 6 7 7 3 3 3 2 6 8 10 10 9 9 9 8
8 7 6 6 5 4 5 4 3 3 3 3 2 2 2 2 1 2 2 3 4 4 4 4 4 4 3 2 4 5 3 3 3 2 3 7 8 9 10 9 9 8 8
10 8 7 7 6 5 3 3 2 2 2 2 2 2 2 1 1 1 1 1 1 2 1 2 2 2 2 2 2 2 3 2 2 2 3 7 7 9 9 9 8 8 8
9 8 7 7 6 5 4 3 3 2 2 2 2 2 2 1 1 1 1 1 1 1 1 1 1 2 2 2 2 3 3 2 2 2 3 8 8 8 9 8 8 8 8
9 8 7 7 6 5 4 3 3 3 3 3 2 3 3 2 2 2 1 1 1 1 1 1 2 2 1 2 2 3 3 3 3 2 2 7 8 8 8 8 8 8 7
9 8 7 7 6 5 4 3 3 3 3 3 2 2 3 2 2 2 2 1 1 1 2 2 2 2 1 1 2 2 3 3 3 3 2 4 7 7 7 7 8 7 7
9 8 8 7 6 6 5 4 3 3 3 2 2 2 3 3 3 3 2 1 1 2 2 2 2 2 1 1 1 1 2 3 3 3 2 2 3 6 7 7 7 7 7
9 8 7 7 6 5 4 3 3 2 3 2 2 2 2 3 3 3 3 2 2 2 2 2 2 2 1 1 1 1 1 2 3 3 2 2 2 2 4 7 6 6 7
8 7 6 5 5 5 4 3 3 3 3 2 2 2 2 3 3 3 3 2 2 2 2 2 2 2 2 1 1 1 1 2 2 3 3 3 2 2 2 5 6 6 7
9 7 6 5 4 3 3 2 2 2 1 2 2 2 3 2 3 3 2 2 3 2 2 2 2 1 2 2 2 1 0 1 2 3 3 3 3 3 3 3 2 4 6
7 8 7 5 3 3 2 2 2 2 1 1 1 2 3 3 3 3 2 2 2 2 2 3 3 2 1 1 2 2 2 1 0 1 2 2 3 3 3 3 2 1 2
7 7 7 6 4 3 3 2 2 2 2 1 1 1 2 3 3 3 3 3 3 2 2 2 3 2 1 1 3 2 2 3 2 1 0 2 2 2 3 3 3 3 2
7 7 7 5 5 4 3 2 2 2 2 1 1 0 1 2 3 3 3 3 3 3 2 2 3 3 2 0 2 3 3 2 1 2 1 1 1 2 2 2 3 3 3
6 6 6 6 5 3 3 3 4 3 2 2 2 1 1 1 2 3 3 3 3 3 3 2 2 2 3 1 0 1 2 4 3 0 2 1 1 2 2 2 3 3 3
7 6 5 5 4 3 3 4 3 2 2 1 1 1 1 1 1 2 3 3 3 3 3 2 2 2 2 2 1 1 1 1 2 3 1 2 1 1 2 2 2 2 3
6 6 5 5 3 3 3 3 4 3 2 2 2 1 1 1 1 2 2 2 3 2 3 3 3 3 2 2 1 1 2 2 2 2 2 2 1 2 1 2 2 3 3
Wind_Direction
157 156 132 123 116 111 106 102 100 96 93 90 86 86 87 88 87 89 95 100 104 107 109 109 108 108 108 106 108 115 121 125 127 128 129 128 125 123 123 123 121 118 123
153 151 134 126 121 115 111 107 105 101 97 94 90 88 87 88 88 88 92 99 102 108 111 109 109 111 109 107 107 113 119 120 125 128 129 127 125 124 125 127 125 124 126
143 144 137 130 125 120 116 112 110 107 103 100 95 90 88 88 88 89 90 102 111 112 113 111 112 112 110 111 111 113 119 120 122 128 126 121 123 124 125 126 127 127 125
141 143 139 135 131 126 122 118 117 113 108 104 98 93 90 89 88 88 83 103 125 123 119 116 112 111 111 112 112 113 118 121 120 127 121 123 126 128 126 125 127 127 126
137 142 144 139 135 132 128 125 123 119 114 109 103 97 93 91 88 83 74 94 118 124 123 119 115 114 113 110 110 111 111 115 115 113 110 112 121 132 130 130 131 130 130
137 141 146 141 139 138 135 131 127 124 120 115 110 102 98 95 92 87 78 86 105 117 120 120 118 117 116 113 110 108 110 108 106 104 109 114 123 134 134 133 134 132 134
139 142 147 143 141 140 139 136 131 128 125 121 115 109 103 99 97 95 93 91 98 110 117 119 120 120 116 113 110 107 109 112 105 112 116 122 135 138 138 136 135 135 136
144 146 148 150 147 145 144 142 138 134 130 127 122 116 110 105 104 105 107 105 108 114 121 121 121 123 121 120 115 113 116 117 118 121 121 129 144 143 142 141 140 140 138
141 145 150 158 154 152 151 148 145 141 136 135 130 123 118 116 116 111 113 113 116 120 120 121 123 125 125 121 117 116 112 114 115 128 138 137 148 147 145 144 144 146 144
141 146 154 157 156 156 157 156 154 152 146 142 138 131 126 120 119 121 114 119 121 124 124 124 125 119 118 113 111 111 111 113 110 116 122 138 146 147 146 147 147 147 147
146 151 154 157 160 159 165 167 161 157 151 147 146 145 137 121 110 125 129 133 130 128 128 127 130 118 115 114 112 107 108 109 112 109 123 138 145 145 143 144 147 151 153
156 161 164 164 166 169 172 157 161 158 153 150 149 145 140 143 144 146 152 155 148 140 135 133 137 122 102 102 99 98 101 112 111 121 136 139 144 147 146 145 145 148 153
162 162 168 169 169 168 160 153 156 149 149 153 158 150 145 141 145 140 111 144 157 158 127 113 99 92 102 106 100 102 117 115 114 134 143 145 143 148 148 148 151 153 155
157 163 165 161 161 162 153 156 154 153 157 161 170 159 148 145 148 140 129 129 111 109 116 102 97 104 106 107 114 117 123 129 130 131 155 153 147 148 151 151 155 158 158
155 161 162 154 154 153 148 158 154 162 165 168 164 171 159 148 145 134 142 139 133 118 132 127 116 110 113 111 122 127 129 142 138 138 149 156 151 148 153 158 161 164 164
160 161 156 152 152 144 145 152 156 160 159 156 165 174 161 151 145 136 141 146 144 149 142 135 138 133 123 115 124 128 138 140 144 144 144 158 158 158 159 166 170 169 170
156 153 155 155 145 141 146 150 147 154 149 152 163 164 157 153 150 143 132 138 157 153 135 121 117 109 110 102 95 121 144 148 149 150 150 154 166 172 170 167 168 173 176
147 148 152 149 140 142 143 143 143 145 140 147 150 147 149 151 152 145 141 145 139 134 128 130 121 106 100 104 117 157 158 153 152 156 153 155 162 171 175 173 178 182 185
136 132 130 131 141 147 142 135 133 134 142 150 147 149 154 150 143 141 148 150 137 128 130 146 128 131 139 150 159 153 166 168 169 163 167 169 167 162 162 179 186 191 192
134 130 123 122 130 135 129 117 106 109 136 147 149 162 157 154 151 143 144 143 136 125 124 132 133 137 155 165 152 126 160 180 166 172 181 179 177 173 170 173 185 198 196
126 128 129 127 133 134 137 142 137 149 161 147 151 150 149 148 151 147 142 135 136 137 145 138 135 134 124 116 95 54 9 3 129 182 180 168 181 186 175 177 180 182 192
138 138 137 143 151 153 161 171 165 155 153 148 131 137 148 147 151 153 147 147 144 138 131 131 130 128 147 132 127 111 42 359 347 329 156 164 179 172 175 183 179 181 176
137 141 141 143 147 155 149 123 97 78 64 58 65 136 194 155 151 152 154 151 147 145 160 166 149 143 159 200 142 141 145 195 293 326 308 198 180 175 188 185 183 193 191
141 137 133 138 141 150 145 131 133 136 147 191 190 192 189 140 138 146 151 156 157 156 158 172 159 155 150 178 250 153 158 155 150 259 319 306 223 194 201 195 193 199 198
136 133 132 131 133 136 140 148 145 143 170 169 142 139 134 119 137 147 158 160 161 163 166 166 153 149 153 168 185 169 119 100 125 144 212 297 311 258 217 208 198 200 202
128 126 129 128 137 142 139 152 152 152 152 132 137 158 172 189 184 172 166 166 168 168 174 176 165 161 168 162 169 160 155 153 169 153 173 216 248 269 246 212 201 206 207